Location: Caltech
(34.1382°N, 118.1253°W)
Time: 14:17:39
(UTC-07:00)

Cosmos 1408 Rocket - Visible Passes

Search period start: 01 April 2015 00:00
Search period end: 11 April 2015 00:00
Orbit: 602 x 632 km, 82.6° (Epoch: 01 April)

Date Brightness Start Highest point End Pass type
(mag) Time Alt. Az. Time Alt. Az. Time Alt. Az.
01 Apr 6.4 05:22:01 10° SE 05:25:09 20° E 05:28:28 10° NE visible
02 Apr 5.2 05:37:42 10° SSE 05:41:47 38° E 05:45:56 10° NNE visible
03 Apr 3.8 05:54:02 10° S 05:58:29 76° E 06:02:56 10° N visible
04 Apr 3.7 06:10:52 10° SSW 06:15:14 54° W 06:19:36 10° N visible
05 Apr 6.3 04:51:17 10° SE 04:54:24 20° E 04:57:41 10° NE visible
06 Apr 5.1 05:06:57 10° SSE 05:11:02 37° E 05:15:09 10° NNE visible
07 Apr 3.8 05:23:16 10° S 05:27:42 75° E 05:32:09 10° N visible
08 Apr 3.7 05:40:06 10° SSW 05:44:27 54° W 05:48:48 10° N visible
09 Apr 6.1 04:20:31 10° SE 04:23:38 19° E 04:26:52 10° NE visible
09 Apr 4.5 05:57:28 10° SW 06:01:19 28° WNW 06:05:05 10° NNW visible
10 Apr 5.0 04:36:11 10° SSE 04:40:15 37° E 04:44:21 10° NNE visible
